Private Wetterstation Sandau
Wetterdaten: Sonntag, 28.10.2012
Datum Zeit Temp. A. Feuchte A. Luftdruck Regen Wind Richtung Richtung Taupunkt Windchill
28.10.2012 00:01 -0,1 C 87 % 1010,2 hPa 0,0 l/m 3,6 km/h (1 Bft) N 360 -2,0 C -0,1 C
28.10.2012 00:06 -0,2 C 87 % 1010,3 hPa 0,0 l/m 5,4 km/h (1 Bft) N 360 -2,1 C -2,0 C
28.10.2012 00:11 -0,2 C 87 % 1010,3 hPa 0,0 l/m 3,2 km/h (1 Bft) N 360 -2,1 C -0,2 C
28.10.2012 00:16 -0,2 C 87 % 1010,4 hPa 0,0 l/m 3,6 km/h (1 Bft) N-NW 337 -2,1 C -0,2 C
28.10.2012 00:21 -0,1 C 88 % 1010,6 hPa 0,0 l/m 2,5 km/h (1 Bft) N-NO 22 -1,8 C -0,1 C
28.10.2012 00:26 -0,1 C 88 % 1010,3 hPa 0,0 l/m 4,7 km/h (1 Bft) N-NO 22 -1,8 C -1,6 C
28.10.2012 00:31 -0,1 C 88 % 1010,5 hPa 0,0 l/m 2,5 km/h (1 Bft) N-NO 22 -1,8 C -0,1 C
28.10.2012 00:36 -0,1 C 88 % 1010,6 hPa 0,0 l/m 1,4 km/h (1 Bft) N-NO 22 -1,8 C -0,1 C
28.10.2012 00:41 -0,1 C 88 % 1010,6 hPa 0,0 l/m 2,5 km/h (1 Bft) N-NO 22 -1,8 C -0,1 C
28.10.2012 00:46 -0,2 C 88 % 1010,7 hPa 0,0 l/m 0,0 km/h (0 Bft) N-NO 22 -1,9 C -0,2 C
28.10.2012 00:51 -0,2 C 88 % 1010,8 hPa 0,0 l/m 1,4 km/h (1 Bft) N-NW 337 -1,9 C -0,2 C
28.10.2012 00:56 -0,2 C 88 % 1010,8 hPa 0,0 l/m 0,0 km/h (0 Bft) N 360 -1,9 C -0,2 C
28.10.2012 01:01 -0,2 C 88 % 1010,6 hPa 0,0 l/m 0,0 km/h (0 Bft) N 360 -1,9 C -0,2 C
28.10.2012 01:06 -0,4 C 88 % 1010,5 hPa 0,0 l/m 1,4 km/h (1 Bft) N-NW 337 -2,1 C -0,4 C
28.10.2012 01:11 -0,4 C 88 % 1010,7 hPa 0,0 l/m 3,6 km/h (1 Bft) N 360 -2,1 C -0,4 C
28.10.2012 01:16 -0,5 C 88 % 1010,7 hPa 0,0 l/m 0,0 km/h (0 Bft) NW 315 -2,2 C -0,5 C
28.10.2012 01:21 -0,6 C 88 % 1010,8 hPa 0,0 l/m 2,2 km/h (1 Bft) NW 315 -2,3 C -0,6 C
28.10.2012 01:26 -0,6 C 88 % 1010,7 hPa 0,0 l/m 0,0 km/h (0 Bft) NW 315 -2,3 C -0,6 C
28.10.2012 01:31 -0,6 C 88 % 1010,7 hPa 0,0 l/m 2,9 km/h (1 Bft) NW 315 -2,3 C -0,6 C
28.10.2012 01:36 -0,7 C 88 % 1010,9 hPa 0,0 l/m 0,0 km/h (0 Bft) NW 315 -2,4 C -0,7 C
28.10.2012 01:41 -0,7 C 88 % 1010,9 hPa 0,0 l/m 2,5 km/h (1 Bft) NW 315 -2,4 C -0,7 C
28.10.2012 01:46 -0,7 C 88 % 1010,8 hPa 0,0 l/m 4,0 km/h (1 Bft) NW 315 -2,4 C -0,7 C
28.10.2012 01:51 -0,7 C 88 % 1010,9 hPa 0,0 l/m 4,0 km/h (1 Bft) NW 315 -2,4 C -0,7 C
28.10.2012 01:56 -0,7 C 88 % 1011,0 hPa 0,0 l/m 4,0 km/h (1 Bft) NW 315 -2,4 C -0,7 C
28.10.2012 02:01 -0,7 C 88 % 1011,0 hPa 0,0 l/m 1,4 km/h (1 Bft) W-NW 292 -2,4 C -0,7 C
28.10.2012 02:06 -0,8 C 88 % 1011,2 hPa 0,0 l/m 4,0 km/h (1 Bft) N-NW 337 -2,5 C -0,8 C
28.10.2012 02:11 -0,8 C 88 % 1011,2 hPa 0,0 l/m 0,0 km/h (0 Bft) NW 315 -2,5 C -0,8 C
28.10.2012 02:16 -0,8 C 88 % 1011,4 hPa 0,0 l/m 3,2 km/h (1 Bft) NW 315 -2,5 C -0,8 C
28.10.2012 02:21 -0,8 C 88 % 1011,4 hPa 0,0 l/m 1,4 km/h (1 Bft) N-NW 337 -2,5 C -0,8 C
28.10.2012 02:26 -0,9 C 89 % 1011,4 hPa 0,0 l/m 3,2 km/h (1 Bft) NW 315 -2,5 C -0,9 C
28.10.2012 02:31 -0,9 C 89 % 1011,5 hPa 0,0 l/m 4,0 km/h (1 Bft) N 360 -2,5 C -0,9 C
28.10.2012 02:36 -0,9 C 89 % 1011,6 hPa 0,0 l/m 5,4 km/h (1 Bft) N-NW 337 -2,5 C -2,8 C
28.10.2012 02:41 -0,9 C 89 % 1011,6 hPa 0,0 l/m 2,2 km/h (1 Bft) N-NW 337 -2,5 C -0,9 C
28.10.2012 02:46 -1,0 C 89 % 1011,6 hPa 0,0 l/m 2,2 km/h (1 Bft) W-NW 292 -2,6 C -1,0 C
28.10.2012 02:51 -1,0 C 89 % 1011,6 hPa 0,0 l/m 2,5 km/h (1 Bft) NW 315 -2,6 C -1,0 C
28.10.2012 02:56 -1,0 C 89 % 1011,6 hPa 0,0 l/m 0,0 km/h (0 Bft) W-NW 292 -2,6 C -1,0 C
28.10.2012 03:01 -1,0 C 89 % 1011,6 hPa 0,0 l/m 4,0 km/h (1 Bft) W-NW 292 -2,6 C -1,0 C
28.10.2012 03:06 -1,2 C 89 % 1011,9 hPa 0,0 l/m 0,0 km/h (0 Bft) W-NW 292 -2,8 C -1,2 C
28.10.2012 03:11 -1,3 C 89 % 1011,7 hPa 0,0 l/m 0,0 km/h (0 Bft) W-NW 292 -2,9 C -1,3 C
28.10.2012 03:16 -1,3 C 89 % 1011,7 hPa 0,0 l/m 0,0 km/h (0 Bft) W-NW 292 -2,9 C -1,3 C
28.10.2012 03:21 -1,3 C 89 % 1011,9 hPa 0,0 l/m 0,0 km/h (0 Bft) W-NW 292 -2,9 C -1,3 C
28.10.2012 03:26 -1,4 C 89 % 1012,0 hPa 0,0 l/m 4,7 km/h (1 Bft) W-NW 292 -3,0 C -3,0 C
28.10.2012 03:31 -1,4 C 89 % 1012,0 hPa 0,0 l/m 1,4 km/h (1 Bft) W 270 -3,0 C -1,4 C
28.10.2012 03:36 -1,4 C 89 % 1011,9 hPa 0,0 l/m 5,8 km/h (2 Bft) W 270 -3,0 C -3,5 C
28.10.2012 03:41 -1,4 C 89 % 1012,0 hPa 0,0 l/m 3,2 km/h (1 Bft) W 270 -3,0 C -1,4 C
28.10.2012 03:46 -1,4 C 89 % 1012,1 hPa 0,0 l/m 1,8 km/h (1 Bft) W-NW 292 -3,0 C -1,4 C
28.10.2012 03:51 -1,4 C 89 % 1012,0 hPa 0,0 l/m 3,2 km/h (1 Bft) W-NW 292 -3,0 C -1,4 C
28.10.2012 03:56 -1,4 C 89 % 1012,0 hPa 0,0 l/m 2,9 km/h (1 Bft) W-NW 292 -3,0 C -1,4 C
28.10.2012 04:01 -1,4 C 89 % 1012,1 hPa 0,0 l/m 4,0 km/h (1 Bft) NW 315 -3,0 C -1,4 C
28.10.2012 04:06 -1,5 C 89 % 1012,0 hPa 0,0 l/m 0,0 km/h (0 Bft) N-NW 337 -3,1 C -1,5 C
28.10.2012 04:11 -1,5 C 89 % 1012,1 hPa 0,0 l/m 4,0 km/h (1 Bft) N-NW 337 -3,1 C -1,5 C
28.10.2012 04:16 -1,6 C 89 % 1012,0 hPa 0,0 l/m 2,5 km/h (1 Bft) N-NW 337 -3,2 C -1,6 C
28.10.2012 04:21 -1,6 C 89 % 1012,0 hPa 0,0 l/m 3,2 km/h (1 Bft) N-NW 337 -3,2 C -1,6 C
28.10.2012 04:26 -1,6 C 89 % 1012,0 hPa 0,0 l/m 1,4 km/h (1 Bft) N-NW 337 -3,2 C -1,6 C
28.10.2012 04:31 -1,6 C 89 % 1012,2 hPa 0,0 l/m 0,0 km/h (0 Bft) N-NW 337 -3,2 C -1,6 C
28.10.2012 04:36 -1,6 C 90 % 1012,3 hPa 0,0 l/m 0,0 km/h (0 Bft) W-NW 292 -3,0 C -1,6 C
28.10.2012 04:41 -1,6 C 90 % 1012,2 hPa 0,0 l/m 3,2 km/h (1 Bft) W 270 -3,0 C -1,6 C
28.10.2012 04:46 -1,6 C 90 % 1012,2 hPa 0,0 l/m 0,0 km/h (0 Bft) W 270 -3,0 C -1,6 C
28.10.2012 04:51 -1,6 C 90 % 1012,3 hPa 0,0 l/m 2,2 km/h (1 Bft) NW 315 -3,0 C -1,6 C
28.10.2012 04:56 -1,6 C 90 % 1012,4 hPa 0,0 l/m 1,1 km/h (1 Bft) NW 315 -3,0 C -1,6 C
28.10.2012 05:01 -1,6 C 90 % 1012,4 hPa 0,0 l/m 0,0 km/h (0 Bft) NW 315 -3,0 C -1,6 C
28.10.2012 05:06 -1,6 C 90 % 1012,4 hPa 0,0 l/m 2,5 km/h (1 Bft) NW 315 -3,0 C -1,6 C
28.10.2012 05:11 -1,6 C 90 % 1012,2 hPa 0,0 l/m 0,0 km/h (0 Bft) NW 315 -3,0 C -1,6 C
28.10.2012 05:16 -1,6 C 90 % 1012,3 hPa 0,0 l/m 0,0 km/h (0 Bft) W 270 -3,0 C -1,6 C
28.10.2012 05:21 -1,6 C 90 % 1012,4 hPa 0,0 l/m 0,0 km/h (0 Bft) W 270 -3,0 C -1,6 C
28.10.2012 05:26 -1,6 C 90 % 1012,5 hPa 0,0 l/m 0,0 km/h (0 Bft) W 270 -3,0 C -1,6 C
28.10.2012 05:31 -1,6 C 90 % 1012,6 hPa 0,0 l/m 0,0 km/h (0 Bft) W 270 -3,0 C -1,6 C
28.10.2012 05:36 -1,6 C 90 % 1012,4 hPa 0,0 l/m 0,0 km/h (0 Bft) W-NW 292 -3,0 C -1,6 C
28.10.2012 05:41 -1,7 C 90 % 1012,4 hPa 0,0 l/m 0,0 km/h (0 Bft) W-NW 292 -3,1 C -1,7 C
28.10.2012 05:46 -1,7 C 90 % 1012,4 hPa 0,0 l/m 0,0 km/h (0 Bft) NW 315 -3,1 C -1,7 C
28.10.2012 05:51 -1,8 C 90 % 1012,4 hPa 0,0 l/m 0,0 km/h (0 Bft) NW 315 -3,2 C -1,8 C
28.10.2012 05:56 -1,8 C 90 % 1012,4 hPa 0,0 l/m 0,0 km/h (0 Bft) W-NW 292 -3,2 C -1,8 C
28.10.2012 06:01 -1,8 C 90 % 1012,4 hPa 0,0 l/m 2,2 km/h (1 Bft) W 270 -3,2 C -1,8 C
28.10.2012 06:06 -1,7 C 90 % 1012,3 hPa 0,0 l/m 0,0 km/h (0 Bft) W-NW 292 -3,1 C -1,7 C
28.10.2012 06:11 -1,7 C 90 % 1012,4 hPa 0,0 l/m 0,0 km/h (0 Bft) W-NW 292 -3,1 C -1,7 C
28.10.2012 06:16 -1,7 C 90 % 1012,5 hPa 0,0 l/m 1,4 km/h (1 Bft) W-NW 292 -3,1 C -1,7 C
28.10.2012 06:21 -1,7 C 90 % 1012,5 hPa 0,0 l/m 1,8 km/h (1 Bft) W-NW 292 -3,1 C -1,7 C
28.10.2012 06:26 -1,8 C 90 % 1012,7 hPa 0,0 l/m 3,6 km/h (1 Bft) NW 315 -3,2 C -1,8 C
28.10.2012 06:31 -1,7 C 90 % 1012,7 hPa 0,0 l/m 0,0 km/h (0 Bft) N-NW 337 -3,1 C -1,7 C
28.10.2012 06:36 -1,7 C 90 % 1012,7 hPa 0,0 l/m 2,9 km/h (1 Bft) N-NW 337 -3,1 C -1,7 C
28.10.2012 06:41 -1,8 C 90 % 1012,8 hPa 0,0 l/m 0,0 km/h (0 Bft) NW 315 -3,2 C -1,8 C
28.10.2012 06:46 -1,7 C 90 % 1013,0 hPa 0,0 l/m 1,1 km/h (1 Bft) NW 315 -3,1 C -1,7 C
28.10.2012 06:51 -1,7 C 90 % 1013,0 hPa 0,0 l/m 0,0 km/h (0 Bft) NW 315 -3,1 C -1,7 C
28.10.2012 06:56 -1,6 C 91 % 1013,1 hPa 0,0 l/m 0,0 km/h (0 Bft) W-NW 292 -2,9 C -1,6 C
28.10.2012 07:01 -1,6 C 91 % 1013,4 hPa 0,0 l/m 0,0 km/h (0 Bft) W-NW 292 -2,9 C -1,6 C
28.10.2012 07:06 -1,6 C 91 % 1013,5 hPa 0,0 l/m 0,0 km/h (0 Bft) W-NW 292 -2,9 C -1,6 C
28.10.2012 07:11 -1,6 C 91 % 1013,5 hPa 0,0 l/m 0,0 km/h (0 Bft) W-NW 292 -2,9 C -1,6 C
28.10.2012 07:16 -1,6 C 91 % 1013,7 hPa 0,0 l/m 0,0 km/h (0 Bft) W-NW 292 -2,9 C -1,6 C
28.10.2012 07:21 -1,5 C 91 % 1013,8 hPa 0,0 l/m 0,0 km/h (0 Bft) W-NW 292 -2,8 C -1,5 C
28.10.2012 07:26 -1,4 C 91 % 1013,9 hPa 0,0 l/m 0,0 km/h (0 Bft) W-NW 292 -2,7 C -1,4 C
28.10.2012 07:31 -1,2 C 91 % 1013,9 hPa 0,0 l/m 0,0 km/h (0 Bft) W-NW 292 -2,5 C -1,2 C
28.10.2012 07:36 -1,1 C 91 % 1014,0 hPa 0,0 l/m 4,7 km/h (1 Bft) W-NW 292 -2,4 C -2,7 C
28.10.2012 07:41 -1,0 C 91 % 1014,1 hPa 0,0 l/m 2,2 km/h (1 Bft) NW 315 -2,3 C -1,0 C
28.10.2012 07:46 -0,9 C 91 % 1014,1 hPa 0,0 l/m 1,8 km/h (1 Bft) W-NW 292 -2,2 C -0,9 C
28.10.2012 07:51 -0,8 C 91 % 1014,1 hPa 0,0 l/m 2,9 km/h (1 Bft) W-NW 292 -2,1 C -0,8 C
28.10.2012 07:56 -0,7 C 91 % 1014,0 hPa 0,0 l/m 2,5 km/h (1 Bft) W-NW 292 -2,0 C -0,7 C
28.10.2012 08:01 -0,7 C 91 % 1014,2 hPa 0,0 l/m 1,4 km/h (1 Bft) W-NW 292 -2,0 C -0,7 C
28.10.2012 08:06 -0,7 C 91 % 1014,3 hPa 0,0 l/m 0,0 km/h (0 Bft) W-SW 247 -2,0 C -0,7 C
28.10.2012 08:11 -0,6 C 91 % 1014,1 hPa 0,0 l/m 3,6 km/h (1 Bft) W-NW 292 -1,9 C -0,6 C
28.10.2012 08:16 -0,7 C 91 % 1014,3 hPa 0,0 l/m 2,2 km/h (1 Bft) W-NW 292 -2,0 C -0,7 C
28.10.2012 08:21 -0,7 C 91 % 1014,4 hPa 0,0 l/m 4,7 km/h (1 Bft) W-NW 292 -2,0 C -2,2 C
28.10.2012 08:26 -0,7 C 91 % 1014,5 hPa 0,0 l/m 0,0 km/h (0 Bft) W-NW 292 -2,0 C -0,7 C
28.10.2012 08:31 -0,6 C 91 % 1014,5 hPa 0,0 l/m 0,0 km/h (0 Bft) W-NW 292 -1,9 C -0,6 C
28.10.2012 08:36 -0,6 C 91 % 1014,5 hPa 0,0 l/m 0,0 km/h (0 Bft) W-NW 292 -1,9 C -0,6 C
28.10.2012 08:41 -0,5 C 91 % 1014,4 hPa 0,0 l/m 0,0 km/h (0 Bft) W-NW 292 -1,8 C -0,5 C
28.10.2012 08:46 -0,5 C 91 % 1014,4 hPa 0,0 l/m 2,5 km/h (1 Bft) W-NW 292 -1,8 C -0,5 C
28.10.2012 08:51 -0,5 C 91 % 1014,6 hPa 0,0 l/m 0,0 km/h (0 Bft) W-NW 292 -1,8 C -0,5 C
28.10.2012 08:56 -0,4 C 91 % 1014,6 hPa 0,0 l/m 1,8 km/h (1 Bft) W-NW 292 -1,7 C -0,4 C
28.10.2012 09:01 -0,2 C 91 % 1014,5 hPa 0,0 l/m 1,4 km/h (1 Bft) W 270 -1,5 C -0,2 C
28.10.2012 09:06 -0,1 C 91 % 1014,6 hPa 0,0 l/m 0,0 km/h (0 Bft) W-NW 292 -1,4 C -0,1 C
28.10.2012 09:11 0,1 C 91 % 1014,6 hPa 0,0 l/m 2,9 km/h (1 Bft) W-NW 292 -1,2 C 0,1 C
28.10.2012 09:16 0,3 C 91 % 1014,7 hPa 0,0 l/m 4,0 km/h (1 Bft) W-NW 292 -1,0 C 0,3 C
28.10.2012 09:21 0,3 C 91 % 1014,6 hPa 0,0 l/m 4,0 km/h (1 Bft) NW 315 -1,0 C 0,3 C
28.10.2012 09:26 0,4 C 91 % 1014,4 hPa 0,0 l/m 3,6 km/h (1 Bft) NW 315 -0,9 C 0,4 C
28.10.2012 09:31 0,7 C 91 % 1014,6 hPa 0,0 l/m 0,0 km/h (0 Bft) N-NW 337 -0,6 C 0,7 C
28.10.2012 09:36 0,8 C 91 % 1014,7 hPa 0,0 l/m 1,8 km/h (1 Bft) W-NW 292 -0,5 C 0,8 C
28.10.2012 09:41 0,9 C 91 % 1014,9 hPa 0,0 l/m 5,8 km/h (2 Bft) NW 315 -0,4 C -0,9 C
28.10.2012 09:46 1,1 C 91 % 1014,8 hPa 0,0 l/m 0,0 km/h (0 Bft) W 270 -0,2 C 1,1 C
28.10.2012 09:51 1,3 C 91 % 1014,9 hPa 0,0 l/m 4,7 km/h (1 Bft) NW 315 -0,0 C 0,0 C
28.10.2012 09:56 1,3 C 91 % 1015,0 hPa 0,0 l/m 2,5 km/h (1 Bft) NW 315 -0,0 C 1,3 C
28.10.2012 10:01 1,5 C 92 % 1014,9 hPa 0,0 l/m 0,0 km/h (0 Bft) NW 315 0,3 C 1,5 C
28.10.2012 10:06 1,8 C 91 % 1014,9 hPa 0,0 l/m 2,5 km/h (1 Bft) W 270 0,5 C 1,8 C
28.10.2012 10:11 1,9 C 91 % 1014,9 hPa 0,0 l/m 6,1 km/h (2 Bft) NW 315 0,6 C 0,1 C
28.10.2012 10:16 2,1 C 91 % 1014,9 hPa 0,0 l/m 0,0 km/h (0 Bft) W-NW 292 0,8 C 2,1 C
28.10.2012 10:21 2,2 C 91 % 1014,9 hPa 0,0 l/m 0,0 km/h (0 Bft) W-NW 292 0,9 C 2,2 C
28.10.2012 10:26 2,4 C 91 % 1014,9 hPa 0,0 l/m 2,2 km/h (1 Bft) W-SW 247 1,1 C 2,4 C
28.10.2012 10:31 2,5 C 91 % 1015,1 hPa 0,0 l/m 6,1 km/h (2 Bft) N-NW 337 1,2 C 0,8 C
28.10.2012 10:36 2,7 C 91 % 1015,0 hPa 0,0 l/m 4,7 km/h (1 Bft) W-SW 247 1,4 C 1,6 C
28.10.2012 10:41 2,9 C 91 % 1015,1 hPa 0,0 l/m 1,8 km/h (1 Bft) N-NW 337 1,6 C 2,9 C
28.10.2012 10:46 3,0 C 90 % 1015,1 hPa 0,0 l/m 0,0 km/h (0 Bft) N-NW 337 1,5 C 3,0 C
28.10.2012 10:51 3,1 C 90 % 1015,2 hPa 0,0 l/m 6,5 km/h (2 Bft) W 270 1,6 C 1,4 C
28.10.2012 10:56 3,3 C 89 % 1015,2 hPa 0,0 l/m 1,4 km/h (1 Bft) W-NW 292 1,7 C 3,3 C
28.10.2012 11:01 3,4 C 89 % 1015,1 hPa 0,0 l/m 2,9 km/h (1 Bft) N 360 1,8 C 3,4 C
28.10.2012 11:06 3,6 C 89 % 1015,3 hPa 0,0 l/m 2,5 km/h (1 Bft) W-NW 292 2,0 C 3,6 C
28.10.2012 11:11 3,8 C 88 % 1015,1 hPa 0,0 l/m 4,7 km/h (1 Bft) W-NW 292 2,0 C 2,8 C
28.10.2012 11:16 3,9 C 88 % 1015,3 hPa 0,0 l/m 6,1 km/h (2 Bft) W 270 2,1 C 2,4 C
28.10.2012 11:21 4,1 C 87 % 1015,4 hPa 0,0 l/m 3,2 km/h (1 Bft) W-NW 292 2,1 C 4,1 C
28.10.2012 11:26 4,3 C 86 % 1015,3 hPa 0,0 l/m 0,0 km/h (0 Bft) NW 315 2,2 C 4,3 C
28.10.2012 11:31 4,5 C 85 % 1015,3 hPa 0,0 l/m 0,0 km/h (0 Bft) W-NW 292 2,2 C 4,5 C
28.10.2012 11:36 4,6 C 85 % 1015,3 hPa 0,0 l/m 6,1 km/h (2 Bft) W-NW 292 2,3 C 3,2 C
28.10.2012 11:41 4,8 C 85 % 1015,3 hPa 0,0 l/m 2,2 km/h (1 Bft) NW 315 2,5 C 4,8 C
28.10.2012 11:46 4,9 C 84 % 1015,2 hPa 0,0 l/m 3,6 km/h (1 Bft) NW 315 2,4 C 4,9 C
28.10.2012 11:51 5,1 C 81 % 1015,1 hPa 0,0 l/m 5,0 km/h (1 Bft) N-NO 22 2,1 C 4,2 C
28.10.2012 11:56 5,4 C 80 % 1015,2 hPa 0,0 l/m 2,9 km/h (1 Bft) N 360 2,2 C 5,4 C
28.10.2012 12:01 5,4 C 79 % 1015,2 hPa 0,0 l/m 2,2 km/h (1 Bft) NW 315 2,1 C 5,4 C
28.10.2012 12:06 5,6 C 79 % 1015,3 hPa 0,0 l/m 5,0 km/h (1 Bft) N-NO 22 2,3 C 4,8 C
28.10.2012 12:11 5,6 C 77 % 1015,1 hPa 0,0 l/m 0,0 km/h (0 Bft) N 360 1,9 C 5,6 C
28.10.2012 12:16 5,8 C 78 % 1015,1 hPa 0,0 l/m 10,1 km/h (2 Bft) W 270 2,3 C 3,6 C
28.10.2012 12:21 5,9 C 73 % 1015,2 hPa 0,0 l/m 5,8 km/h (2 Bft) N-NW 337 1,4 C 4,8 C
28.10.2012 12:26 6,1 C 73 % 1015,3 hPa 0,0 l/m 3,6 km/h (1 Bft) N-NW 337 1,6 C 6,1 C
28.10.2012 12:31 6,3 C 70 % 1015,4 hPa 0,0 l/m 6,5 km/h (2 Bft) N 360 1,2 C 5,1 C
28.10.2012 12:36 6,1 C 70 % 1015,4 hPa 0,0 l/m 1,8 km/h (1 Bft) N-NO 22 1,0 C 6,1 C
28.10.2012 12:41 6,3 C 67 % 1015,3 hPa 0,0 l/m 4,0 km/h (1 Bft) N-NO 22 0,6 C 6,3 C
28.10.2012 12:46 6,4 C 67 % 1015,1 hPa 0,0 l/m 3,2 km/h (1 Bft) N 360 0,7 C 6,4 C
28.10.2012 12:51 6,6 C 67 % 1015,3 hPa 0,0 l/m 6,8 km/h (2 Bft) N 360 0,9 C 5,3 C
28.10.2012 12:56 6,9 C 68 % 1015,3 hPa 0,0 l/m 2,5 km/h (1 Bft) N-NW 337 1,4 C 6,9 C
28.10.2012 13:01 7,0 C 67 % 1015,2 hPa 0,0 l/m 0,0 km/h (0 Bft) N 360 1,3 C 7,0 C
28.10.2012 13:06 7,2 C 64 % 1015,3 hPa 0,0 l/m 3,6 km/h (1 Bft) N-NW 337 0,9 C 7,2 C
28.10.2012 13:11 7,3 C 63 % 1015,3 hPa 0,0 l/m 8,6 km/h (2 Bft) N 360 0,7 C 5,7 C
28.10.2012 13:16 7,3 C 61 % 1015,2 hPa 0,0 l/m 6,5 km/h (2 Bft) W 270 0,3 C 6,2 C
28.10.2012 13:21 7,2 C 62 % 1015,4 hPa 0,0 l/m 2,9 km/h (1 Bft) N-NW 337 0,4 C 7,2 C
28.10.2012 13:26 7,0 C 63 % 1015,4 hPa 0,0 l/m 1,8 km/h (1 Bft) NW 315 0,4 C 7,0 C
28.10.2012 13:31 6,8 C 64 % 1015,3 hPa 0,0 l/m 0,0 km/h (0 Bft) N-NW 337 0,5 C 6,8 C
28.10.2012 13:36 6,6 C 64 % 1015,3 hPa 0,0 l/m 0,0 km/h (0 Bft) NW 315 0,3 C 6,6 C
28.10.2012 13:41 6,6 C 64 % 1015,2 hPa 0,0 l/m 5,8 km/h (2 Bft) NW 315 0,3 C 5,6 C
28.10.2012 13:46 6,6 C 64 % 1015,2 hPa 0,0 l/m 9,0 km/h (2 Bft) NW 315 0,3 C 4,8 C
28.10.2012 13:51 6,8 C 63 % 1015,2 hPa 0,0 l/m 2,9 km/h (1 Bft) N-NW 337 0,3 C 6,8 C
28.10.2012 13:56 6,9 C 60 % 1015,3 hPa 0,0 l/m 2,2 km/h (1 Bft) NO 45 -0,3 C 6,9 C
28.10.2012 14:01 7,1 C 60 % 1015,3 hPa 0,0 l/m 1,4 km/h (1 Bft) W-NW 292 -0,1 C 7,1 C
28.10.2012 14:06 7,3 C 60 % 1015,3 hPa 0,0 l/m 4,0 km/h (1 Bft) NW 315 0,1 C 7,3 C
28.10.2012 14:11 7,3 C 60 % 1015,3 hPa 0,0 l/m 2,2 km/h (1 Bft) NW 315 0,1 C 7,3 C
28.10.2012 14:16 7,5 C 60 % 1015,3 hPa 0,0 l/m 1,4 km/h (1 Bft) W-NW 292 0,2 C 7,5 C
28.10.2012 14:21 7,8 C 59 % 1015,3 hPa 0,0 l/m 4,3 km/h (1 Bft) W 270 0,3 C 7,8 C
28.10.2012 14:26 7,8 C 57 % 1015,3 hPa 0,0 l/m 5,0 km/h (1 Bft) N 360 -0,2 C 7,3 C
28.10.2012 14:31 7,6 C 58 % 1015,2 hPa 0,0 l/m 1,4 km/h (1 Bft) O-NO 67 -0,1 C 7,6 C
28.10.2012 14:36 7,7 C 58 % 1015,2 hPa 0,0 l/m 2,5 km/h (1 Bft) NW 315 -0,0 C 7,7 C
28.10.2012 14:41 7,6 C 56 % 1015,3 hPa 0,0 l/m 5,0 km/h (1 Bft) N-NO 22 -0,6 C 7,0 C
28.10.2012 14:46 7,6 C 57 % 1015,3 hPa 0,0 l/m 5,0 km/h (1 Bft) W 270 -0,4 C 7,0 C
28.10.2012 14:51 7,6 C 55 % 1015,3 hPa 0,0 l/m 2,9 km/h (1 Bft) N-NO 22 -0,9 C 7,6 C
28.10.2012 14:56 7,4 C 55 % 1015,4 hPa 0,0 l/m 2,9 km/h (1 Bft) N 360 -1,0 C 7,4 C
28.10.2012 15:01 7,3 C 54 % 1015,4 hPa 0,0 l/m 0,0 km/h (0 Bft) O-NO 67 -1,4 C 7,3 C
28.10.2012 15:06 7,3 C 55 % 1015,4 hPa 0,0 l/m 0,0 km/h (0 Bft) O-NO 67 -1,1 C 7,3 C
28.10.2012 15:11 7,3 C 55 % 1015,4 hPa 0,0 l/m 2,2 km/h (1 Bft) N-NO 22 -1,1 C 7,3 C
28.10.2012 15:16 7,3 C 56 % 1015,5 hPa 0,0 l/m 2,9 km/h (1 Bft) N-NW 337 -0,9 C 7,3 C
28.10.2012 15:21 7,3 C 56 % 1015,4 hPa 0,0 l/m 0,0 km/h (0 Bft) N-NO 22 -0,9 C 7,3 C
28.10.2012 15:26 7,3 C 56 % 1015,4 hPa 0,0 l/m 4,0 km/h (1 Bft) N-NO 22 -0,9 C 7,3 C
28.10.2012 15:31 7,3 C 56 % 1015,6 hPa 0,0 l/m 0,0 km/h (0 Bft) N 360 -0,9 C 7,3 C
28.10.2012 15:36 7,3 C 56 % 1015,6 hPa 0,0 l/m 4,7 km/h (1 Bft) N-NW 337 -0,9 C 6,8 C
28.10.2012 15:41 7,2 C 55 % 1015,7 hPa 0,0 l/m 6,1 km/h (2 Bft) N-NO 22 -1,2 C 6,2 C
28.10.2012 15:46 7,0 C 55 % 1015,7 hPa 0,0 l/m 1,4 km/h (1 Bft) N-NO 22 -1,4 C 7,0 C
28.10.2012 15:51 6,9 C 55 % 1015,7 hPa 0,0 l/m 1,4 km/h (1 Bft) N-NO 22 -1,5 C 6,9 C
28.10.2012 15:56 6,9 C 56 % 1015,5 hPa 0,0 l/m 0,0 km/h (0 Bft) N-NO 22 -1,3 C 6,9 C
28.10.2012 16:01 6,9 C 58 % 1015,6 hPa 0,0 l/m 0,0 km/h (0 Bft) N-NO 22 -0,8 C 6,9 C
28.10.2012 16:06 6,9 C 58 % 1015,6 hPa 0,0 l/m 0,0 km/h (0 Bft) N-NO 22 -0,8 C 6,9 C
28.10.2012 16:11 7,0 C 59 % 1015,7 hPa 0,0 l/m 0,0 km/h (0 Bft) N-NW 337 -0,5 C 7,0 C
28.10.2012 16:16 7,0 C 59 % 1015,8 hPa 0,0 l/m 0,0 km/h (0 Bft) N-NW 337 -0,5 C 7,0 C
28.10.2012 16:21 6,9 C 59 % 1015,8 hPa 0,0 l/m 1,4 km/h (1 Bft) N-NW 337 -0,5 C 6,9 C
28.10.2012 16:26 6,5 C 59 % 1015,8 hPa 0,0 l/m 0,0 km/h (0 Bft) N-NW 337 -0,9 C 6,5 C
28.10.2012 16:31 6,2 C 60 % 1015,9 hPa 0,0 l/m 0,0 km/h (0 Bft) N-NW 337 -1,0 C 6,2 C
28.10.2012 16:36 5,9 C 61 % 1015,9 hPa 0,0 l/m 0,0 km/h (0 Bft) N-NW 337 -1,0 C 5,9 C
28.10.2012 16:41 5,5 C 61 % 1016,0 hPa 0,0 l/m 0,0 km/h (0 Bft) N-NW 337 -1,4 C 5,5 C
28.10.2012 16:46 5,3 C 62 % 1015,9 hPa 0,0 l/m 0,0 km/h (0 Bft) N-NW 337 -1,4 C 5,3 C
28.10.2012 16:51 4,9 C 63 % 1016,1 hPa 0,0 l/m 0,0 km/h (0 Bft) N-NW 337 -1,5 C 4,9 C
28.10.2012 16:56 4,5 C 64 % 1016,2 hPa 0,0 l/m 0,0 km/h (0 Bft) N-NW 337 -1,7 C 4,5 C
28.10.2012 17:01 4,2 C 64 % 1016,2 hPa 0,0 l/m 0,0 km/h (0 Bft) N-NW 337 -2,0 C 4,2 C
28.10.2012 17:06 3,9 C 66 % 1016,2 hPa 0,0 l/m 0,0 km/h (0 Bft) N-NW 337 -1,9 C 3,9 C
28.10.2012 17:11 3,5 C 67 % 1016,2 hPa 0,0 l/m 0,0 km/h (0 Bft) N-NW 337 -2,0 C 3,5 C
28.10.2012 17:16 3,3 C 68 % 1016,2 hPa 0,0 l/m 0,0 km/h (0 Bft) N-NW 337 -2,0 C 3,3 C
28.10.2012 17:21 3,1 C 68 % 1016,4 hPa 0,0 l/m 0,0 km/h (0 Bft) N-NW 337 -2,2 C 3,1 C
28.10.2012 17:26 2,9 C 69 % 1016,5 hPa 0,0 l/m 0,0 km/h (0 Bft) N-NO 22 -2,2 C 2,9 C
28.10.2012 17:31 2,6 C 70 % 1016,6 hPa 0,0 l/m 0,0 km/h (0 Bft) N-NO 22 -2,3 C 2,6 C
28.10.2012 17:36 2,4 C 71 % 1016,5 hPa 0,0 l/m 0,0 km/h (0 Bft) N-NO 22 -2,3 C 2,4 C
28.10.2012 17:41 2,2 C 71 % 1016,6 hPa 0,0 l/m 0,0 km/h (0 Bft) N-NO 22 -2,5 C 2,2 C
28.10.2012 17:46 1,9 C 72 % 1016,6 hPa 0,0 l/m 0,0 km/h (0 Bft) N-NO 22 -2,6 C 1,9 C
28.10.2012 17:51 1,8 C 72 % 1016,7 hPa 0,0 l/m 0,0 km/h (0 Bft) NW 315 -2,7 C 1,8 C
28.10.2012 17:56 1,5 C 73 % 1016,7 hPa 0,0 l/m 0,0 km/h (0 Bft) NW 315 -2,8 C 1,5 C
28.10.2012 18:01 1,3 C 74 % 1016,8 hPa 0,0 l/m 0,0 km/h (0 Bft) NW 315 -2,8 C 1,3 C
28.10.2012 18:06 1,3 C 75 % 1016,7 hPa 0,0 l/m 0,0 km/h (0 Bft) NW 315 -2,6 C 1,3 C
28.10.2012 18:11 1,1 C 75 % 1016,9 hPa 0,0 l/m 0,0 km/h (0 Bft) NW 315 -2,8 C 1,1 C
28.10.2012 18:16 0,9 C 76 % 1016,8 hPa 0,0 l/m 0,0 km/h (0 Bft) NW 315 -2,8 C 0,9 C
28.10.2012 18:21 0,8 C 76 % 1016,9 hPa 0,0 l/m 0,0 km/h (0 Bft) NW 315 -2,9 C 0,8 C
28.10.2012 18:26 0,7 C 76 % 1017,0 hPa 0,0 l/m 0,0 km/h (0 Bft) NW 315 -3,0 C 0,7 C
28.10.2012 18:31 0,5 C 76 % 1017,1 hPa 0,0 l/m 1,4 km/h (1 Bft) W-SW 247 -3,2 C 0,5 C
28.10.2012 18:36 0,5 C 77 % 1017,1 hPa 0,0 l/m 0,0 km/h (0 Bft) SW 225 -3,1 C 0,5 C
28.10.2012 18:41 0,5 C 79 % 1017,1 hPa 0,0 l/m 0,0 km/h (0 Bft) S 180 -2,7 C 0,5 C
28.10.2012 18:46 0,5 C 79 % 1017,1 hPa 0,0 l/m 0,0 km/h (0 Bft) S-SO 157 -2,7 C 0,5 C
28.10.2012 18:51 0,5 C 79 % 1017,0 hPa 0,0 l/m 0,0 km/h (0 Bft) S-SO 157 -2,7 C 0,5 C
28.10.2012 18:56 0,4 C 79 % 1017,0 hPa 0,0 l/m 0,0 km/h (0 Bft) S-SO 157 -2,8 C 0,4 C
28.10.2012 19:01 0,4 C 80 % 1016,9 hPa 0,0 l/m 0,0 km/h (0 Bft) S-SO 157 -2,6 C 0,4 C
28.10.2012 19:06 0,4 C 80 % 1016,9 hPa 0,0 l/m 0,0 km/h (0 Bft) S-SO 157 -2,6 C 0,4 C
28.10.2012 19:11 0,5 C 81 % 1017,0 hPa 0,0 l/m 0,0 km/h (0 Bft) S-SO 157 -2,4 C 0,5 C
28.10.2012 19:16 0,4 C 81 % 1016,9 hPa 0,0 l/m 0,0 km/h (0 Bft) S-SO 157 -2,5 C 0,4 C
28.10.2012 19:21 0,4 C 81 % 1017,1 hPa 0,0 l/m 0,0 km/h (0 Bft) S-SO 157 -2,5 C 0,4 C
28.10.2012 19:26 0,3 C 81 % 1017,2 hPa 0,0 l/m 0,0 km/h (0 Bft) S-SO 157 -2,6 C 0,3 C
28.10.2012 19:31 0,2 C 81 % 1016,9 hPa 0,0 l/m 0,0 km/h (0 Bft) S-SO 157 -2,7 C 0,2 C
28.10.2012 19:36 0,1 C 81 % 1016,9 hPa 0,0 l/m 0,0 km/h (0 Bft) S-SO 157 -2,8 C 0,1 C
28.10.2012 19:41 0,1 C 82 % 1017,0 hPa 0,0 l/m 0,0 km/h (0 Bft) S-SO 157 -2,6 C 0,1 C
28.10.2012 19:46 0,1 C 82 % 1017,1 hPa 0,0 l/m 0,0 km/h (0 Bft) S-SO 157 -2,6 C 0,1 C
28.10.2012 19:51 -0,1 C 82 % 1017,1 hPa 0,0 l/m 0,0 km/h (0 Bft) S-SO 157 -2,8 C -0,1 C
28.10.2012 19:56 -0,1 C 82 % 1016,9 hPa 0,0 l/m 0,0 km/h (0 Bft) S-SO 157 -2,8 C -0,1 C
28.10.2012 20:01 -0,2 C 82 % 1017,1 hPa 0,0 l/m 0,0 km/h (0 Bft) S-SO 157 -2,9 C -0,2 C
28.10.2012 20:06 -0,2 C 82 % 1017,1 hPa 0,0 l/m 0,0 km/h (0 Bft) S-SO 157 -2,9 C -0,2 C
28.10.2012 20:11 -0,3 C 82 % 1017,4 hPa 0,0 l/m 0,0 km/h (0 Bft) S-SO 157 -3,0 C -0,3 C
28.10.2012 20:16 -0,4 C 83 % 1017,3 hPa 0,0 l/m 0,0 km/h (0 Bft) S-SO 157 -2,9 C -0,4 C
28.10.2012 20:21 -0,4 C 83 % 1017,2 hPa 0,0 l/m 0,0 km/h (0 Bft) S-SO 157 -2,9 C -0,4 C
28.10.2012 20:26 -0,5 C 83 % 1017,4 hPa 0,0 l/m 0,0 km/h (0 Bft) S-SO 157 -3,0 C -0,5 C
28.10.2012 20:31 -0,5 C 83 % 1017,5 hPa 0,0 l/m 0,0 km/h (0 Bft) S-SO 157 -3,0 C -0,5 C
28.10.2012 20:36 -0,6 C 83 % 1017,5 hPa 0,0 l/m 0,0 km/h (0 Bft) S-SO 157 -3,1 C -0,6 C
28.10.2012 20:41 -0,7 C 83 % 1017,5 hPa 0,0 l/m 3,2 km/h (1 Bft) S-SO 157 -3,2 C -0,7 C
28.10.2012 20:46 -0,7 C 83 % 1017,6 hPa 0,0 l/m 2,9 km/h (1 Bft) S-SO 157 -3,2 C -0,7 C
28.10.2012 20:51 -0,7 C 84 % 1017,6 hPa 0,0 l/m 2,5 km/h (1 Bft) S-SO 157 -3,1 C -0,7 C
28.10.2012 20:56 -0,7 C 84 % 1017,7 hPa 0,0 l/m 3,6 km/h (1 Bft) S 180 -3,1 C -0,7 C
28.10.2012 21:01 -0,7 C 84 % 1017,8 hPa 0,0 l/m 0,0 km/h (0 Bft) S-SO 157 -3,1 C -0,7 C
28.10.2012 21:06 -0,7 C 84 % 1017,8 hPa 0,0 l/m 0,0 km/h (0 Bft) S-SO 157 -3,1 C -0,7 C
28.10.2012 21:11 -0,8 C 84 % 1017,8 hPa 0,0 l/m 2,2 km/h (1 Bft) S-SO 157 -3,2 C -0,8 C
28.10.2012 21:16 -0,9 C 84 % 1017,8 hPa 0,0 l/m 1,4 km/h (1 Bft) S-SW 202 -3,3 C -0,9 C
28.10.2012 21:21 -1,0 C 84 % 1017,8 hPa 0,0 l/m 0,0 km/h (0 Bft) S 180 -3,4 C -1,0 C
28.10.2012 21:26 -1,1 C 84 % 1017,9 hPa 0,0 l/m 1,8 km/h (1 Bft) S-SO 157 -3,4 C -1,1 C
28.10.2012 21:31 -1,1 C 84 % 1018,0 hPa 0,0 l/m 3,2 km/h (1 Bft) S 180 -3,4 C -1,1 C
28.10.2012 21:36 -1,1 C 84 % 1018,1 hPa 0,0 l/m 2,2 km/h (1 Bft) S 180 -3,4 C -1,1 C
28.10.2012 21:41 -1,1 C 84 % 1018,2 hPa 0,0 l/m 0,0 km/h (0 Bft) S 180 -3,4 C -1,1 C
28.10.2012 21:46 -1,1 C 84 % 1018,2 hPa 0,0 l/m 0,0 km/h (0 Bft) S-SO 157 -3,4 C -1,1 C
28.10.2012 21:51 -1,2 C 84 % 1018,3 hPa 0,0 l/m 1,4 km/h (1 Bft) S-SO 157 -3,5 C -1,2 C
28.10.2012 21:56 -1,2 C 84 % 1018,3 hPa 0,0 l/m 0,0 km/h (0 Bft) S-SO 157 -3,5 C -1,2 C
28.10.2012 22:01 -1,1 C 84 % 1018,3 hPa 0,0 l/m 2,2 km/h (1 Bft) S-SO 157 -3,4 C -1,1 C
28.10.2012 22:06 -1,1 C 85 % 1018,3 hPa 0,0 l/m 2,2 km/h (1 Bft) S 180 -3,3 C -1,1 C
28.10.2012 22:11 -1,1 C 85 % 1018,2 hPa 0,0 l/m 2,9 km/h (1 Bft) S-SO 157 -3,3 C -1,1 C
28.10.2012 22:16 -1,1 C 85 % 1018,2 hPa 0,0 l/m 5,0 km/h (1 Bft) S-SO 157 -3,3 C -2,8 C
28.10.2012 22:21 -1,1 C 85 % 1018,1 hPa 0,0 l/m 3,6 km/h (1 Bft) S-SO 157 -3,3 C -1,1 C
28.10.2012 22:26 -1,1 C 86 % 1018,4 hPa 0,0 l/m 5,4 km/h (1 Bft) S 180 -3,1 C -3,0 C
28.10.2012 22:31 -1,1 C 86 % 1018,3 hPa 0,0 l/m 0,0 km/h (0 Bft) S 180 -3,1 C -1,1 C
28.10.2012 22:36 -1,1 C 86 % 1018,3 hPa 0,0 l/m 2,2 km/h (1 Bft) S-SO 157 -3,1 C -1,1 C
28.10.2012 22:41 -1,1 C 85 % 1018,4 hPa 0,0 l/m 1,4 km/h (1 Bft) S-SO 157 -3,3 C -1,1 C
28.10.2012 22:46 -1,2 C 85 % 1018,4 hPa 0,0 l/m 2,5 km/h (1 Bft) S 180 -3,4 C -1,2 C
28.10.2012 22:51 -1,2 C 85 % 1018,3 hPa 0,0 l/m 2,5 km/h (1 Bft) S-SO 157 -3,4 C -1,2 C
28.10.2012 22:56 -1,3 C 85 % 1018,4 hPa 0,0 l/m 2,2 km/h (1 Bft) S-SO 157 -3,5 C -1,3 C
28.10.2012 23:01 -1,4 C 85 % 1018,3 hPa 0,0 l/m 0,0 km/h (0 Bft) S-SO 157 -3,6 C -1,4 C
28.10.2012 23:06 -1,5 C 85 % 1018,3 hPa 0,0 l/m 0,0 km/h (0 Bft) S-SO 157 -3,7 C -1,5 C
28.10.2012 23:11 -1,5 C 86 % 1018,4 hPa 0,0 l/m 2,5 km/h (1 Bft) S 180 -3,5 C -1,5 C
28.10.2012 23:16 -1,5 C 86 % 1018,4 hPa 0,0 l/m 0,0 km/h (0 Bft) S-SO 157 -3,5 C -1,5 C
28.10.2012 23:21 -1,5 C 86 % 1018,3 hPa 0,0 l/m 3,6 km/h (1 Bft) S-SO 157 -3,5 C -1,5 C
28.10.2012 23:26 -1,5 C 86 % 1018,4 hPa 0,0 l/m 0,0 km/h (0 Bft) S-SO 157 -3,5 C -1,5 C
28.10.2012 23:31 -1,6 C 86 % 1018,3 hPa 0,0 l/m 1,8 km/h (1 Bft) S-SO 157 -3,6 C -1,6 C
28.10.2012 23:36 -1,6 C 86 % 1018,3 hPa 0,0 l/m 2,5 km/h (1 Bft) SO 135 -3,6 C -1,6 C
28.10.2012 23:41 -1,6 C 86 % 1018,5 hPa 0,0 l/m 3,2 km/h (1 Bft) S-SO 157 -3,6 C -1,6 C
28.10.2012 23:46 -1,6 C 86 % 1018,4 hPa 0,0 l/m 2,5 km/h (1 Bft) S-SO 157 -3,6 C -1,6 C
28.10.2012 23:51 -1,6 C 86 % 1018,5 hPa 0,0 l/m 3,6 km/h (1 Bft) S-SO 157 -3,6 C -1,6 C
28.10.2012 23:56 -1,6 C 87 % 1018,6 hPa 0,0 l/m 2,2 km/h (1 Bft) S-SO 157 -3,5 C -1,6 C
_ Min-Zeit 05:51 15:01 00:01 - 00:46 - - 23:06 03:36
Minimum _ -1,8 C 54 % 1010,2 hPa - 0,0 km/h (0 Bft) - - -3,7 C -3,5 C
_ Max-Zeit 14:21 10:01 23:56 00:01 12:16 - - 11:41 14:21
Maximum _ 7,8 C 92 % 1018,6 hPa 0,0 l/m 10,1 km/h
W (2 Bft)
- - 2,5 C 7,8 C
Durchschnitt _ 1,3 C 81 % 1014,8 hPa #0,0 l/m 1,8 km/h (1 Bft) NW - -1,8 C 1,1 C
(c) by David Heller